Perryton, TX

9:33 AM CST on December 16, 2017 (GMT -0600)
Perryton Ochiltree County

Weather History for KPYX - April, 2012

Change the Weather History Date:

Monday, April 30, 2012

  Actual Average Record
Temperature  
Mean Temperature 66 °F -  
Max Temperature 78 °F 70 °F 95 °F (2013)
Min Temperature 55 °F 43 °F 30 °F (1984)
Cooling Degree Days 2    
Growing Degree Days 16 (Base 50)    
Moisture  
Dew Point 57 °F    
Average Humidity 78    
Maximum Humidity 94    
Minimum Humidity 51    
Precipitation  
Precipitation 0.21 in - - ()
Sea Level Pressure  
Sea Level Pressure 29.91 in    
Wind  
Wind Speed 11 mph (SSE)    
Max Wind Speed 17 mph    
Max Gust Speed 30 mph    
Visibility 10 miles    
Events      
Averages and records for this station are not official NWS values.
T = Trace of Precipitation, MM = Missing Value Source: NWS Daily Summary

Daily Weather History Graph

Daily Weather History Graph

Search for Another Location

Airport or City:

Trip Planner

Search our weather history database for the weather conditions in past years. The results will help you decide how hot, cold, wet, or windy it might be!

Date:

Astronomy

Apr. 30, 2012 Rise Set
Actual Time 6:50 AM CDT 8:30 PM CDT
Civil Twilight 6:22 AM CDT 8:58 PM CDT
Nautical Twilight 5:49 AM CDT 9:31 PM CDT
Astronomical Twilight 5:14 AM CDT 10:06 PM CDT
Moon 2:39 PM CDT (4/30) 3:05 AM CDT (4/30)
Length of Visible Light 14h 35m
Length of Day
13h 40m
Waxing Gibbous, 64% of the Moon is Illuminated
Apr 30
Waxing Gibbous
May 5
Full
May 12
Last Quarter
May 20
New
May 28
First Quarter

Hourly Weather History & Observations

Time (CDT) Temp. Dew Point Humidity Pressure Visibility Wind Dir Wind Speed Gust Speed Precip Events Conditions
12:15 AM 55.4 °F 51.8 °F 88% 29.93 in 10.0 mi East 13.8 mph - N/A   Clear
12:35 AM 55.4 °F 53.6 °F 94% 29.94 in 10.0 mi ENE 10.4 mph - N/A   Scattered Clouds
12:55 AM 55.4 °F 53.6 °F 94% 30.04 in 10.0 mi NW 13.8 mph 29.9 mph N/A   Mostly Cloudy
1:15 AM 55.4 °F 53.6 °F 94% 30.03 in 5.0 mi North 4.6 mph - 0.04 in   Overcast
1:35 AM 55.4 °F 53.6 °F 94% 29.97 in 7.0 mi East 11.5 mph - 0.06 in   Overcast
1:55 AM 57.2 °F 51.8 °F 82% 29.88 in 10.0 mi East 16.1 mph - 0.07 in   Mostly Cloudy
2:15 AM 57.2 °F 51.8 °F 82% 29.89 in 10.0 mi ENE 8.1 mph - N/A   Scattered Clouds
2:35 AM 57.2 °F 51.8 °F 82% 29.91 in 10.0 mi SE 12.7 mph - N/A   Scattered Clouds
2:55 AM 55.4 °F 53.6 °F 94% 29.92 in 10.0 mi SE 12.7 mph - N/A   Mostly Cloudy
3:15 AM 55.4 °F 53.6 °F 94% 29.93 in 10.0 mi SE 11.5 mph - N/A   Mostly Cloudy
3:35 AM 55.4 °F 53.6 °F 94% 29.92 in 10.0 mi ESE 15.0 mph - N/A   Scattered Clouds
3:55 AM 55.4 °F 53.6 °F 94% 29.96 in 7.0 mi SE 8.1 mph - 0.01 in   Mostly Cloudy
4:15 AM 55.4 °F 53.6 °F 94% 29.95 in 10.0 mi SE 17.3 mph - 0.04 in   Overcast
4:35 AM 55.4 °F 53.6 °F 94% 29.96 in 10.0 mi East 11.5 mph - 0.09 in   Overcast
4:55 AM 55.4 °F 53.6 °F 94% 29.93 in 10.0 mi East 11.5 mph - 0.12 in   Mostly Cloudy
5:15 AM 57.2 °F 51.8 °F 82% 29.92 in 10.0 mi East 6.9 mph - N/A   Scattered Clouds
5:35 AM 57.2 °F 53.6 °F 88% 29.97 in 10.0 mi NW 17.3 mph - N/A   Mostly Cloudy
5:55 AM 55.4 °F 53.6 °F 94% 29.96 in 10.0 mi Calm Calm - N/A   Overcast
6:15 AM 57.2 °F 53.6 °F 88% 29.96 in 10.0 mi SE 3.5 mph - N/A   Mostly Cloudy
6:35 AM 55.4 °F 53.6 °F 94% 30.00 in 10.0 mi WNW 6.9 mph - N/A   Mostly Cloudy
6:55 AM 55.4 °F 53.6 °F 94% 29.98 in 10.0 mi SE 6.9 mph - N/A   Overcast
7:15 AM 55.4 °F 53.6 °F 94% 29.99 in 10.0 mi South 5.8 mph - N/A   Mostly Cloudy
7:35 AM 55.4 °F 53.6 °F 94% 29.99 in 10.0 mi SSE 6.9 mph - N/A   Mostly Cloudy
7:55 AM 57.2 °F 53.6 °F 88% 30.01 in 10.0 mi Calm Calm - N/A   Scattered Clouds
8:15 AM 57.2 °F 53.6 °F 88% 30.00 in 10.0 mi Calm Calm - N/A   Mostly Cloudy
8:35 AM 59.0 °F 53.6 °F 82% 30.01 in 10.0 mi Calm Calm - N/A   Overcast
8:55 AM 59.0 °F 55.4 °F 88% 30.01 in 10.0 mi SE 4.6 mph - N/A   Overcast
9:15 AM 59.0 °F 55.4 °F 88% 30.01 in 10.0 mi SE 6.9 mph - N/A   Overcast
9:35 AM 59.0 °F 55.4 °F 88% 30.00 in 10.0 mi SSE 8.1 mph - N/A   Overcast
9:55 AM 60.8 °F 57.2 °F 88% 30.01 in 10.0 mi SSE 9.2 mph - N/A   Overcast
10:15 AM 62.6 °F 57.2 °F 82% 30.00 in 10.0 mi SE 13.8 mph - N/A   Overcast
10:35 AM 64.4 °F 59.0 °F 83% 30.00 in 10.0 mi South 10.4 mph - N/A   Mostly Cloudy
10:55 AM 64.4 °F 59.0 °F 83% 30.00 in 10.0 mi South 11.5 mph - N/A   Mostly Cloudy
11:15 AM 66.2 °F 59.0 °F 78% 29.99 in 10.0 mi SSE 15.0 mph 20.7 mph 0.01 in   Mostly Cloudy
11:35 AM 68.0 °F 59.0 °F 73% 29.99 in 10.0 mi South 13.8 mph 17.3 mph 0.01 in   Scattered Clouds
11:55 AM 69.8 °F 60.8 °F 73% 29.98 in 10.0 mi SSE 16.1 mph 26.5 mph 0.01 in   Scattered Clouds
12:15 PM 71.6 °F 60.8 °F 69% 29.98 in 10.0 mi South 15.0 mph - N/A   Scattered Clouds
12:35 PM 71.6 °F 60.8 °F 69% 29.97 in 10.0 mi South 15.0 mph 19.6 mph N/A   Scattered Clouds
12:55 PM 73.4 °F 60.8 °F 65% 29.96 in 10.0 mi South 17.3 mph 21.9 mph N/A   Mostly Cloudy
1:15 PM 73.4 °F 60.8 °F 65% 29.96 in 10.0 mi South 16.1 mph 26.5 mph N/A   Mostly Cloudy
1:35 PM 73.4 °F 60.8 °F 65% 29.95 in 10.0 mi SSE 17.3 mph 21.9 mph N/A   Scattered Clouds
1:55 PM 75.2 °F 59.0 °F 57% 29.94 in 10.0 mi SSE 13.8 mph 20.7 mph N/A   Clear
2:15 PM 75.2 °F 59.0 °F 57% 29.93 in 10.0 mi South 15.0 mph - N/A   Scattered Clouds
2:35 PM 73.4 °F 59.0 °F 61% 29.93 in 10.0 mi SSE 13.8 mph 21.9 mph N/A   Scattered Clouds
2:55 PM 75.2 °F 60.8 °F 61% 29.92 in 10.0 mi South 15.0 mph 20.7 mph N/A   Mostly Cloudy
3:15 PM 75.2 °F 60.8 °F 61% 29.91 in 10.0 mi South 11.5 mph 18.4 mph N/A   Mostly Cloudy
3:35 PM 77.0 °F 60.8 °F 57% 29.90 in 10.0 mi SSE 12.7 mph 24.2 mph N/A   Mostly Cloudy
3:55 PM 77.0 °F 59.0 °F 54% 29.89 in 10.0 mi SSE 17.3 mph 23.0 mph N/A   Mostly Cloudy
4:15 PM 77.0 °F 59.0 °F 54% 29.89 in 10.0 mi South 13.8 mph 21.9 mph N/A   Mostly Cloudy
4:35 PM 78.8 °F 59.0 °F 51% 29.87 in 10.0 mi South 16.1 mph 20.7 mph N/A   Mostly Cloudy
4:55 PM 78.8 °F 59.0 °F 51% 29.86 in 10.0 mi South 17.3 mph - N/A   Scattered Clouds
5:15 PM 75.2 °F 59.0 °F 57% 29.86 in 10.0 mi South 11.5 mph 19.6 mph N/A   Scattered Clouds
5:35 PM 77.0 °F 59.0 °F 54% 29.86 in 10.0 mi SSW 12.7 mph 19.6 mph N/A   Scattered Clouds
5:55 PM 78.8 °F 59.0 °F 51% 29.85 in 10.0 mi South 13.8 mph 17.3 mph N/A   Scattered Clouds
6:15 PM 78.8 °F 59.0 °F 51% 29.85 in 10.0 mi South 15.0 mph - N/A   Scattered Clouds
6:35 PM 78.8 °F 59.0 °F 51% 29.83 in 10.0 mi South 12.7 mph 16.1 mph N/A   Clear
7:15 PM 77.0 °F 59.0 °F 54% 29.80 in 10.0 mi South 11.5 mph - N/A   Clear
7:35 PM 73.4 °F 59.0 °F 61% 29.78 in 10.0 mi South 9.2 mph - N/A   Clear
7:55 PM 71.6 °F 60.8 °F 69% 29.78 in 10.0 mi SSE 12.7 mph - N/A   Clear
8:15 PM 71.6 °F 60.8 °F 69% 29.77 in 10.0 mi SSE 9.2 mph - N/A   Clear
8:35 PM 69.8 °F 60.8 °F 73% 29.76 in 10.0 mi SE 8.1 mph - N/A   Clear
8:55 PM 68.0 °F 60.8 °F 78% 29.76 in 10.0 mi SE 9.2 mph - N/A   Clear
9:15 PM 68.0 °F 60.8 °F 78% 29.75 in 10.0 mi SE 8.1 mph - N/A   Clear
9:35 PM 66.2 °F 60.8 °F 83% 29.75 in 10.0 mi SSE 8.1 mph - N/A   Clear
9:55 PM 64.4 °F 60.8 °F 88% 29.75 in 7.0 mi SSE 6.9 mph - N/A   Clear
10:15 PM 64.4 °F 60.8 °F 88% 29.76 in 7.0 mi SSE 8.1 mph - N/A   Clear
10:35 PM 66.2 °F 60.8 °F 83% 29.78 in 7.0 mi SSE 11.5 mph - N/A   Clear
10:55 PM 62.6 °F 60.8 °F 94% 29.80 in 7.0 mi SSE 9.2 mph - N/A   Clear
11:15 PM 64.4 °F 59.0 °F 83% 29.80 in 10.0 mi South 10.4 mph 16.1 mph N/A   Clear
11:35 PM 64.4 °F 59.0 °F 83% 29.80 in 10.0 mi South 13.8 mph - N/A   Clear
11:55 PM 64.4 °F 59.0 °F 83% 29.80 in 10.0 mi South 13.8 mph 20.7 mph N/A   Clear